Regional Weather Roundup
Issued by NWS Nashville, TN

Home | Current Version | Previous Version | Text Only | Print | Product List | Glossary On
Versions: 1 2 3 4 5 6 7 8 9 10 11 12 13 14 15 16 17 18 19 20 21 22 23 24 25 26 27 28 29 30 31 32 33 34 35 36 37 38 39 40 41 42 43 44 45 46 47 48 49 50
000
ASUS44 KOHX 300615
RWROHX
MIDDLE TENNESSEE HOURLY WEATHER ROUNDUP
NATIONAL WEATHER SERVICE NASHVILLE TN
1200 AM CST FRI JAN 30 2015

NOTE: "FAIR" INDICATES FEW OR NO CLOUDS BELOW 12,000 FEET WITH
NO SIGNIFICANT WEATHER AND/OR OBSTRUCTIONS TO VISIBILITY.

* THESE REPORTS ARE NOT UNDER NWS QUALITY CONTROL AND MAY NOT
  REPORT WEATHER SUCH AS PRECIPITATION AND FOG.


TNZ005>011-023>034-057-059-062>066-078-080-300700
...NORTHERN MIDDLE TENNESSEE...

CITY           SKY/WX    TMP DP  RH WIND       PRES   REMARKS
CLARKSVILLE    CLOUDY    37  32  82 N15       30.36S WCI  28
CROSSVILLE     CLOUDY    35  26  69 NW13G23   30.22S WCI  26
GALLATIN       CLOUDY    37  33  85 NW10      30.33R WCI  30
DICKSON        CLOUDY    37  30  75 N10       30.33R WCI  30
LEBANON        CLOUDY    37  33  85 NW10      30.30S WCI  30
LIVINGSTON     CLOUDY    36  29  76 N12       30.26S WCI  28
NASHVILLE      CLOUDY    40  30  67 N12       30.34R WCI  33
WEST NASHVILLE CLOUDY    37  30  75 NW6       30.35R WCI  33
PORTLAND       CLOUDY    36  30  80 NW12      30.30S WCI  27
SMYRNA         CLOUDY    37  34  89 N9        30.35R WCI  30
SPARTA         CLOUDY    37  30  75 N7        30.27R WCI  32
$$
TNZ056-058-060-061-075>077-079-093>097-300700
...SOUTHERN MIDDLE TENNESSEE...

CITY           SKY/WX    TMP DP  RH WIND       PRES   REMARKS
COLUMBIA       CLOUDY    41  32  70 N10       30.32R
LEWISBURG      CLOUDY    40  31  70 N14       30.33R WCI  32
MCMINNVILLE    CLOUDY    37  30  75 N9        30.29S WCI  31
SHELBYVILLE    CLOUDY    39  30  70 NW14      30.32S WCI  31
TULLAHOMA      CLOUDY    37  28  70 N9        30.29S WCI  31
WINCHESTER     CLOUDY    37  28  70 N13       30.29S WCI  29
$$


...KEY TO REMARKS...
VSB - VISIBILITY IN MILES
WCI - WIND CHILL INDEX
HX  - HEAT INDEX




USA.gov is the U.S. government's official web portal to all federal, state and local government web resources and services.